This demonstration page uses our WeatherBlox Daily Observations layout. Learn more.

Left ArrowRight Arrow

53.62937, 11.41316

Hourly Observations for April 30, 2021

Temp ( °F °C ) Dew Point ( °F °C ) Humidity (%) Winds ( mph kmh ) Pressure ( in mb ) Visibility ( mi km ) Precip ( " mm )
5:20 am 05:20 Mostly Cloudy 43 6 41 5 93 93 NW 3 6 29.80 1009 30 48 N/A
5:50 am 05:50 Mostly Cloudy 43 6 43 6 100 100 NW 5 7 29.80 1009 30 48 N/A
6:20 am 06:20 Mostly Cloudy 43 6 43 6 100 100 NNW 5 7 29.80 1009 6 9 N/A
6:50 am 06:50 Mostly Cloudy 45 7 43 6 93 93 VRB 2 4 29.83 1010 6 9 N/A
7:20 am 07:20 Mostly Cloudy 45 7 43 6 93 93 VRB 2 4 29.83 1010 5 8 N/A
7:50 am 07:50 Mostly Cloudy 45 7 43 6 93 93 VRB 2 4 29.83 1010 30 48 N/A
8:20 am 08:20 Mostly Cloudy 45 7 41 5 87 87 VRB 1 2 29.86 1011 30 48 N/A
8:50 am 08:50 Mostly Cloudy 46 8 41 5 82 82 NNE 6 9 29.86 1011 30 48 N/A
9:20 am 09:20 Mostly Cloudy 46 8 41 5 82 82 NE 6 9 29.89 1012 30 48 N/A
9:50 am 09:50 Mostly Cloudy 46 8 41 5 82 82 NE 6 9 29.89 1012 30 48 N/A
10:20 am 10:20 Mostly Cloudy 48 9 39 4 71 71 NNE 5 7 29.89 1012 30 48 N/A
10:50 am 10:50 Partly Cloudy 48 9 39 4 71 71 NNE 5 7 29.89 1012 30 48 N/A
11:20 am 11:20 Mostly Cloudy 50 10 39 4 67 67 ENE 3 6 29.91 1013 30 48 N/A
11:50 am 11:50 Partly Cloudy 50 10 39 4 67 67 NE 7 11 29.91 1013 30 48 N/A
12:20 pm 12:20 Partly Cloudy 52 11 37 3 58 58 VRB 3 6 29.91 1013 30 48 N/A
12:50 pm 12:50 Partly Cloudy 52 11 37 3 58 58 N 5 7 29.91 1013 30 48 N/A
1:20 pm 13:20 Partly Cloudy 52 11 39 4 62 62 N 6 9 29.91 1013 30 48 N/A
1:50 pm 13:50 Partly Cloudy 54 12 39 4 58 58 NE 7 11 29.91 1013 30 48 N/A
2:20 pm 14:20 Partly Cloudy 54 12 37 3 54 54 ENE 8 13 29.91 1013 30 48 N/A
2:50 pm 14:50 Partly Cloudy 54 12 39 4 58 58 NE 7 11 29.91 1013 30 48 N/A
3:20 pm 15:20 Mostly Sunny 54 12 36 2 51 51 ENE 7 11 29.91 1013 30 48 N/A
3:50 pm 15:50 Mostly Sunny 52 11 37 3 58 58 NE 10 17 29.91 1013 30 48 N/A
4:20 pm 16:20 Mostly Sunny 52 11 37 3 58 58 ENE 9 15 29.91 1013 30 48 N/A
4:50 pm 16:50 Mostly Sunny 52 11 37 3 58 58 ENE 9 15 29.91 1013 30 48 N/A
5:20 pm 17:20 Mostly Sunny 54 12 37 3 54 54 NE 10 17 29.91 1013 30 48 N/A
5:50 pm 17:50 Mostly Sunny 54 12 39 4 58 58 NE 10 17 29.91 1013 30 48 N/A
6:20 pm 18:20 Mostly Sunny 52 11 39 4 62 62 E 9 15 29.91 1013 30 48 N/A
6:50 pm 18:50 Mostly Sunny 52 11 39 4 62 62 ENE 9 15 29.91 1013 30 48 N/A
7:20 pm 19:20 Mostly Sunny 50 10 39 4 67 67 E 7 11 29.91 1013 7 11 N/A
7:50 pm 19:50 Mostly Sunny 50 10 39 4 67 67 ENE 8 13 29.91 1013 7 11 N/A
8:20 pm 20:20 Mostly Sunny 48 9 41 5 76 76 ENE 7 11 29.92 1013 7 11 N/A
8:50 pm 20:50 Mostly Clear 46 8 39 4 76 76 ENE 7 11 29.94 1014 7 11 N/A
9:20 pm 21:20 Mostly Clear 45 7 39 4 81 81 ENE 5 7 29.95 1014 7 11 N/A
9:50 pm 21:50 Mostly Clear 45 7 39 4 81 81 ENE 5 7 29.95 1014 7 11 N/A

Powered by AerisWeather